Wind_Speed
22 21 20 20 20 20 21 23 23 24 23 21 21 22 21 22 23 22 23 19 19 26 22 23 16 14 15 23 23 8 11 15 29 27 20 15 9 19 17 13 6 7 2 5 17
21 21 19 21 23 23 22 21 24 25 23 22 22 23 22 23 22 27 20 21 17 13 20 19 18 17 21 20 17 8 12 19 26 20 17 10 16 20 11 19 12 9 4 10 12
21 21 21 22 20 22 25 25 25 24 25 24 23 23 22 19 22 13 14 7 12 5 15 19 18 18 21 23 29 15 21 21 20 27 11 11 15 18 21 19 19 20 13 14 19
24 21 21 23 23 24 25 25 27 24 25 24 23 23 19 13 7 9 15 10 15 6 7 10 17 24 16 22 30 23 27 31 14 20 15 9 17 19 19 24 16 15 15 17 22
21 23 22 23 23 24 26 26 27 25 26 25 23 18 14 12 23 21 20 22 17 8 6 4 20 24 22 18 25 24 25 30 34 22 23 26 21 12 20 15 5 18 18 20 22
21 22 24 24 24 25 26 26 25 26 25 23 17 12 11 14 10 9 10 10 8 10 9 6 7 19 24 27 20 14 25 28 20 18 17 5 20 16 14 17 9 12 22 20 25
23 22 24 24 24 25 27 27 25 25 25 13 11 7 10 17 14 14 12 14 14 14 13 11 8 9 11 19 30 20 17 21 26 24 14 5 16 17 22 15 14 14 17 20 26
22 23 24 26 24 27 28 26 25 23 10 17 13 7 10 7 7 8 8 7 5 8 13 14 7 8 5 17 14 22 17 15 24 19 13 15 9 19 25 16 16 16 20 23 28
23 24 25 28 27 28 26 28 20 10 23 8 4 3 2 5 6 11 9 9 8 6 7 10 10 6 6 13 16 12 17 25 20 25 13 16 10 16 30 18 18 18 18 23 24
25 25 24 27 27 26 27 24 18 10 18 3 2 5 1 11 15 17 13 12 11 8 6 10 9 4 5 11 15 18 25 22 23 20 24 18 17 9 14 20 23 19 20 21 25
25 24 25 25 25 21 24 17 17 4 14 6 13 11 14 15 17 11 11 8 11 11 11 17 7 10 11 11 22 23 20 26 21 21 19 22 19 20 22 13 20 20 22 20 21
25 25 24 22 21 17 15 12 9 9 11 11 9 10 12 10 15 8 4 4 4 11 10 5 14 17 16 11 14 27 21 18 20 19 20 20 20 18 23 14 18 18 20 21 20
25 25 23 23 14 12 10 14 12 6 5 9 8 9 8 9 14 15 7 7 9 13 13 14 13 11 17 16 8 11 22 20 19 16 16 14 16 20 22 28 36 18 21 22 24
25 25 25 22 8 14 6 20 15 1 3 4 3 2 10 20 8 7 6 6 4 9 10 11 15 14 12 18 9 7 17 16 19 12 15 16 8 18 15 10 18 27 21 22 23
25 26 24 17 11 8 16 20 7 1 4 10 6 6 18 10 15 1 5 6 9 10 5 4 6 11 16 15 14 6 8 11 20 15 14 14 9 11 20 18 16 22 27 25 24
26 26 18 9 8 14 21 16 2 3 4 6 8 16 18 12 12 5 6 3 6 6 12 17 13 7 12 15 15 6 12 13 17 13 8 9 13 13 18 26 25 26 27 29 29
25 22 13 13 14 21 19 5 3 2 12 11 13 19 17 15 8 9 5 4 3 5 5 9 15 17 11 13 17 16 6 5 8 9 5 16 11 14 11 18 21 24 30 28 31
25 15 10 19 23 18 10 3 3 5 12 15 17 16 7 13 13 16 14 8 2 8 4 6 4 15 16 18 17 11 14 6 3 9 12 8 8 10 21 6 18 28 30 29 29
22 9 6 23 20 14 5 2 5 9 11 13 18 9 12 13 10 9 8 7 8 9 7 6 5 4 6 14 20 13 12 17 7 2 10 9 9 5 8 12 12 22 28 32 37
17 4 12 23 16 9 3 3 5 6 10 8 7 9 15 16 12 15 7 3 6 4 9 5 6 7 11 11 16 12 12 6 6 5 6 11 13 5 15 13 17 16 24 32 34
12 3 15 20 11 8 3 5 6 9 10 6 8 9 14 15 18 11 6 7 13 13 14 6 4 2 4 13 15 9 5 8 6 2 2 4 6 7 5 11 15 17 26 31 34
6 2 15 14 6 3 5 6 8 9 8 4 7 8 11 20 10 7 7 9 18 21 12 4 6 5 14 7 16 17 13 12 8 6 2 2 2 3 4 2 3 13 18 25 31
3 3 8 14 3 4 7 3 6 10 9 7 6 6 10 12 7 11 13 14 14 22 5 9 4 4 5 5 11 11 7 10 4 8 7 2 1 3 4 5 4 7 12 12 18
4 2 5 10 5 5 7 5 8 10 7 10 9 10 13 14 9 12 14 9 33 17 7 17 4 5 8 4 9 7 12 11 8 8 8 6 4 7 5 4 5 7 9 13 15
5 2 3 4 5 6 4 5 11 10 5 11 4 11 15 5 16 6 19 23 12 7 14 6 5 10 14 8 12 18 12 8 5 7 9 7 11 10 8 6 5 6 7 9 13
3 4 2 3 6 6 1 5 10 12 8 9 9 17 17 13 14 20 19 16 11 7 10 5 4 14 5 9 15 13 13 9 3 7 12 16 14 11 13 14 14 10 9 7 9
5 5 2 1 4 4 3 6 9 14 8 8 16 19 16 14 24 33 32 28 20 18 9 5 6 7 3 4 14 11 9 9 3 5 5 11 7 9 13 15 19 20 15 10 7
Wind_Direction
346 340 340 334 332 327 322 322 324 321 322 320 317 317 313 310 305 297 281 281 289 253 255 250 256 242 228 220 215 207 229 224 222 220 242 134 191 193 204 214 195 201 279 55 182
339 337 335 334 333 333 326 322 318 324 324 319 314 312 306 309 307 289 275 271 309 247 225 223 234 224 223 220 213 204 236 222 233 217 240 185 200 186 190 209 190 215 214 161 185
341 342 339 331 328 323 318 324 325 321 318 314 313 306 312 315 308 315 194 9 13 196 226 231 233 226 228 225 224 230 238 243 244 254 220 234 218 215 203 206 201 194 194 182 178
342 339 334 335 336 328 325 320 317 318 314 310 304 303 301 301 277 19 226 298 326 3 233 234 238 229 223 230 224 223 237 228 255 263 206 260 247 212 214 223 208 187 190 189 183
344 339 331 327 321 320 318 320 319 318 312 307 303 303 303 276 265 292 286 285 289 320 329 278 233 228 217 226 222 227 236 227 230 249 280 208 235 210 219 204 206 203 186 196 191
336 328 327 331 332 326 321 321 326 318 312 312 310 305 280 274 303 302 311 300 283 301 300 274 259 235 245 240 225 227 232 242 223 200 257 243 258 207 219 194 197 190 171 186 192
337 338 337 335 332 327 329 331 332 320 320 317 312 301 275 271 301 307 299 277 274 270 260 254 269 261 303 241 233 237 238 231 239 201 213 163 258 227 216 180 190 188 185 185 188
339 337 339 338 333 332 334 338 332 323 329 326 299 284 274 302 312 320 319 312 295 266 236 229 258 273 279 255 239 223 229 244 224 208 199 163 231 258 219 184 188 184 190 190 193
335 336 335 339 337 336 339 341 337 329 346 346 42 272 313 328 337 317 311 292 290 279 234 214 194 250 267 236 231 220 218 219 221 224 179 189 231 242 241 215 203 187 190 189 185
340 339 339 338 340 340 344 354 1 360 343 355 338 272 278 325 314 308 297 278 269 269 189 190 178 232 205 209 213 213 214 215 221 203 195 190 219 246 275 222 208 193 184 187 181
340 337 340 343 342 345 356 2 15 0 360 332 307 290 306 317 314 306 298 285 253 250 251 209 211 217 213 237 251 222 218 222 213 224 198 208 209 222 262 263 209 212 183 186 184
347 348 345 346 343 351 7 32 20 307 307 300 305 289 296 313 313 333 345 274 252 255 250 232 244 242 238 235 245 247 235 232 236 201 215 203 225 210 197 261 248 212 183 183 168
348 347 344 348 351 357 6 7 339 320 281 292 293 300 312 317 310 301 310 312 285 272 252 245 258 241 230 232 270 254 224 233 227 208 193 223 229 219 192 202 255 241 195 178 179
346 345 341 348 4 337 342 338 343 44 284 38 359 14 323 317 276 292 301 307 283 283 280 264 257 251 248 227 198 255 216 250 275 237 206 205 231 209 188 229 230 232 205 185 176
346 343 342 348 336 346 328 337 349 84 334 357 353 321 327 314 307 5 339 294 274 273 274 267 254 234 236 234 208 256 195 267 253 248 212 203 236 210 191 202 219 239 212 203 185
348 346 349 352 338 327 335 340 60 248 358 353 327 341 335 332 325 304 308 301 279 282 256 262 262 284 233 240 216 218 252 292 263 240 219 180 201 214 183 204 198 217 214 207 201
349 347 0 4 338 340 340 343 276 346 348 348 333 335 321 339 338 347 328 283 266 272 244 262 237 229 239 244 210 192 146 203 197 204 215 194 195 244 194 203 204 208 203 202 197
350 350 12 3 349 346 352 294 319 5 351 336 333 312 333 348 337 342 339 354 96 304 279 298 249 206 209 229 198 195 202 252 182 181 194 150 212 216 222 201 212 211 199 192 182
352 357 17 355 354 357 345 11 356 2 352 334 321 359 349 360 341 336 334 2 25 352 345 313 261 154 233 208 209 200 211 215 297 12 161 172 226 113 185 228 217 199 190 193 180
356 25 0 357 354 12 21 36 338 348 336 338 329 343 328 344 341 334 311 77 339 20 333 281 267 266 201 220 226 210 203 188 247 145 176 194 207 234 180 194 190 192 198 191 170
9 352 357 355 25 32 30 351 323 345 349 334 326 311 323 334 332 331 302 331 7 349 333 278 259 57 241 212 201 192 217 195 255 297 56 152 215 8 154 201 194 205 200 188 182
6 17 358 21 42 29 10 342 328 330 336 318 298 323 336 333 317 319 289 318 338 349 317 335 297 259 218 206 225 203 212 204 192 192 170 2 296 57 53 300 250 187 194 189 184
19 337 355 24 51 5 353 329 345 336 332 342 316 345 326 329 313 307 332 320 318 335 311 359 286 281 164 151 221 223 189 202 290 246 217 256 75 49 112 159 164 157 167 170 184
360 347 9 50 66 355 355 342 346 347 314 330 295 300 343 320 312 296 297 326 325 311 320 316 267 311 305 321 161 181 169 183 212 201 167 223 96 46 49 100 141 146 166 167 174
35 44 12 356 20 351 340 323 337 353 319 324 307 340 336 306 307 263 319 322 319 308 344 340 282 321 303 251 211 168 156 165 204 256 186 151 86 44 22 38 65 120 135 159 170
36 342 336 312 348 335 359 7 329 339 318 310 313 323 319 299 285 295 315 314 293 315 335 322 286 317 273 210 189 167 159 171 289 302 139 119 80 55 52 68 66 65 85 122 154
40 4 14 53 342 326 38 334 318 320 308 304 315 315 310 310 313 294 286 280 269 285 296 289 317 314 21 224 149 140 145 149 106 28 344 100 61 65 65 55 40 43 60 75 110
Height
1512 1508 1504 1500 1496 1493 1490 1487 1483 1480 1477 1475 1471 1470 1466 1462 1458 1458 1455 1455 1449 1447 1452 1453 1454 1454 1454 1454 1455 1454 1454 1442 1439 1436 1433 1439 1446 1447 1454 1456 1458 1461 1461 1463 1463
1510 1505 1501 1498 1495 1491 1488 1484 1480 1477 1474 1471 1468 1465 1463 1459 1456 1450 1451 1449 1444 1438 1445 1448 1450 1451 1451 1450 1450 1450 1445 1440 1432 1434 1436 1439 1440 1443 1452 1454 1453 1459 1462 1462 1465
1506 1503 1500 1496 1492 1489 1485 1479 1475 1473 1471 1467 1464 1462 1460 1458 1453 1440 1441 1446 1442 1439 1443 1446 1446 1446 1448 1447 1443 1441 1438 1442 1435 1436 1438 1434 1439 1439 1445 1447 1446 1452 1460 1462 1463
1505 1502 1498 1493 1490 1485 1482 1478 1473 1470 1467 1463 1461 1458 1457 1457 1450 1443 1442 1439 1440 1440 1442 1443 1444 1442 1444 1439 1438 1436 1434 1440 1441 1435 1436 1444 1439 1436 1439 1439 1445 1450 1455 1460 1464
1504 1500 1497 1492 1486 1483 1479 1474 1468 1465 1462 1458 1455 1453 1454 1452 1446 1444 1444 1441 1440 1441 1442 1443 1441 1442 1436 1434 1433 1430 1427 1428 1435 1438 1440 1442 1435 1434 1435 1439 1442 1446 1449 1455 1463
1502 1498 1493 1488 1484 1481 1476 1470 1463 1459 1456 1453 1450 1450 1450 1448 1442 1442 1440 1438 1439 1441 1441 1443 1442 1441 1435 1433 1427 1424 1427 1424 1428 1434 1444 1439 1436 1434 1432 1437 1442 1444 1446 1453 1462
1500 1495 1491 1485 1481 1475 1471 1465 1461 1456 1452 1449 1448 1448 1447 1445 1441 1440 1437 1437 1438 1439 1439 1442 1442 1443 1436 1428 1428 1423 1424 1425 1421 1430 1439 1441 1442 1427 1432 1435 1439 1442 1445 1453 1460
1498 1493 1488 1482 1478 1473 1467 1463 1458 1454 1451 1448 1447 1447 1444 1442 1439 1438 1437 1436 1435 1435 1435 1439 1442 1441 1439 1430 1421 1424 1425 1428 1416 1421 1433 1441 1442 1438 1431 1434 1436 1441 1446 1451 1457
1496 1491 1486 1482 1476 1470 1466 1460 1454 1451 1449 1446 1447 1447 1440 1440 1440 1438 1436 1435 1434 1434 1434 1436 1439 1439 1438 1430 1424 1420 1415 1417 1414 1412 1427 1438 1436 1434 1433 1432 1433 1437 1444 1450 1456
1495 1490 1486 1480 1475 1469 1464 1458 1454 1451 1450 1446 1447 1450 1443 1442 1438 1436 1434 1433 1433 1432 1433 1435 1435 1434 1432 1429 1418 1412 1410 1403 1408 1405 1415 1429 1430 1433 1432 1429 1430 1433 1440 1447 1452
1494 1489 1484 1479 1474 1469 1464 1458 1456 1455 1451 1452 1450 1448 1443 1441 1437 1433 1432 1430 1431 1431 1426 1426 1429 1423 1427 1426 1414 1405 1399 1399 1396 1399 1406 1416 1425 1432 1430 1429 1426 1430 1435 1446 1451
1493 1488 1483 1477 1473 1469 1468 1464 1467 1466 1458 1449 1447 1445 1444 1441 1436 1432 1431 1431 1427 1424 1419 1423 1417 1412 1416 1420 1426 1408 1401 1405 1393 1393 1399 1409 1418 1419 1431 1435 1425 1431 1431 1443 1448
1492 1486 1481 1477 1473 1471 1469 1467 1465 1463 1462 1448 1445 1443 1443 1442 1436 1433 1433 1429 1426 1423 1415 1412 1408 1404 1410 1413 1419 1415 1401 1400 1398 1393 1397 1407 1414 1417 1422 1432 1437 1430 1430 1439 1444
1490 1485 1481 1477 1475 1470 1469 1465 1463 1462 1458 1443 1443 1443 1442 1438 1432 1431 1431 1432 1427 1419 1416 1413 1406 1407 1408 1409 1419 1418 1407 1411 1407 1405 1404 1406 1413 1410 1420 1428 1429 1428 1429 1434 1441
1489 1485 1480 1475 1473 1472 1470 1465 1463 1464 1446 1445 1444 1444 1441 1438 1435 1430 1431 1430 1427 1424 1421 1411 1406 1406 1407 1408 1411 1414 1408 1415 1412 1418 1407 1409 1415 1391 1407 1421 1427 1421 1422 1429 1435
1489 1483 1478 1475 1474 1472 1467 1463 1464 1460 1447 1447 1445 1445 1439 1434 1431 1430 1429 1430 1427 1424 1418 1412 1411 1411 1404 1406 1408 1415 1418 1423 1415 1411 1410 1407 1407 1392 1398 1396 1404 1415 1418 1426 1431
1487 1481 1477 1476 1476 1470 1466 1465 1459 1450 1450 1453 1450 1446 1440 1432 1428 1428 1428 1426 1425 1422 1413 1403 1401 1403 1405 1404 1404 1415 1426 1413 1415 1413 1400 1390 1406 1389 1381 1386 1393 1400 1410 1421 1429
1486 1481 1478 1476 1473 1468 1465 1466 1458 1462 1457 1457 1454 1444 1436 1434 1433 1430 1425 1420 1426 1426 1417 1406 1394 1392 1394 1396 1398 1411 1414 1405 1390 1388 1391 1399 1403 1382 1381 1384 1389 1394 1404 1416 1425
1485 1482 1480 1477 1472 1468 1469 1464 1470 1466 1468 1465 1452 1443 1438 1436 1442 1434 1428 1429 1429 1431 1427 1412 1396 1387 1388 1391 1394 1401 1407 1398 1401 1379 1383 1385 1379 1378 1379 1381 1386 1390 1398 1407 1415
1485 1483 1482 1477 1472 1470 1473 1474 1473 1472 1471 1469 1461 1453 1449 1442 1443 1439 1429 1431 1432 1431 1433 1418 1405 1390 1386 1390 1389 1392 1395 1412 1402 1384 1384 1369 1373 1373 1376 1380 1383 1389 1393 1402 1411
1484 1484 1482 1477 1473 1475 1478 1480 1476 1474 1472 1470 1466 1463 1456 1450 1449 1443 1436 1427 1426 1427 1426 1419 1408 1398 1390 1386 1385 1393 1397 1391 1388 1383 1389 1374 1372 1369 1371 1375 1382 1387 1391 1398 1407
1485 1486 1483 1477 1480 1482 1479 1482 1482 1477 1474 1470 1467 1463 1460 1456 1448 1445 1438 1431 1428 1429 1425 1420 1415 1392 1387 1382 1382 1386 1386 1389 1389 1389 1395 1402 1395 1383 1386 1386 1387 1388 1392 1397 1405
1488 1487 1483 1479 1481 1480 1479 1478 1478 1477 1477 1472 1470 1467 1462 1460 1457 1442 1435 1433 1430 1430 1427 1423 1407 1386 1387 1393 1385 1388 1391 1389 1391 1382 1389 1400 1382 1388 1391 1393 1394 1394 1396 1399 1405
1490 1487 1485 1485 1490 1490 1486 1479 1477 1475 1475 1474 1471 1467 1464 1462 1455 1448 1440 1434 1433 1428 1426 1424 1409 1398 1389 1382 1379 1391 1391 1392 1389 1384 1384 1387 1387 1392 1393 1394 1397 1399 1401 1403 1407
1492 1493 1492 1490 1489 1492 1493 1488 1480 1477 1476 1472 1468 1467 1468 1467 1459 1447 1441 1436 1430 1424 1426 1422 1409 1399 1388 1384 1376 1382 1395 1400 1401 1386 1385 1391 1395 1399 1399 1398 1400 1402 1403 1404 1408
1496 1496 1494 1493 1493 1493 1492 1487 1485 1483 1482 1474 1470 1469 1467 1464 1459 1450 1448 1447 1438 1425 1428 1421 1405 1398 1386 1378 1374 1381 1392 1398 1403 1400 1385 1395 1400 1403 1405 1403 1403 1405 1406 1409 1412
1497 1496 1494 1494 1491 1490 1491 1490 1488 1484 1479 1476 1473 1469 1465 1459 1457 1449 1445 1442 1438 1436 1432 1426 1414 1400 1384 1377 1378 1393 1399 1402 1412 1413 1409 1397 1408 1408 1411 1413 1414 1411 1411 1414 1415